Time,TemperatureF,DewpointF,PressureIn,WindDirection,WindDirectionDegrees,WindSpeedMPH,WindSpeedGustMPH,Humidity,HourlyPrecipIn,Conditions,Clouds,dailyrainin,SoftwareType,DateUTC
2013-07-04 00:03:00,77.6,72.7,30.25,WSW,247,0.0,4.0,85,0.00,,,-99.99,WeatherLink 5.7,2013-07-04 04:03:00,
2013-07-04 00:13:00,77.6,72.7,30.25,WSW,247,0.0,3.0,85,0.00,,,-99.99,WeatherLink 5.7,2013-07-04 04:13:00,
2013-07-04 00:23:00,77.5,73.0,30.25,WSW,247,1.0,5.0,86,0.00,,,-99.99,WeatherLink 5.7,2013-07-04 04:23:00,
2013-07-04 00:33:00,77.6,73.1,30.26,WSW,247,1.0,4.0,86,0.00,,,-99.99,WeatherLink 5.7,2013-07-04 04:33:00,
2013-07-04 00:43:00,77.5,73.0,30.26,WSW,247,1.0,4.0,86,0.00,,,-99.99,WeatherLink 5.7,2013-07-04 04:43:00,
2013-07-04 00:53:00,77.5,73.3,30.26,WSW,247,1.0,6.0,87,0.00,,,-99.99,WeatherLink 5.7,2013-07-04 04:53:00,
2013-07-04 01:03:00,77.5,73.7,30.26,SW,225,2.0,5.0,88,0.00,,,-99.99,WeatherLink 5.7,2013-07-04 05:03:00,
2013-07-04 01:13:00,77.4,73.9,30.26,SW,225,3.0,5.0,89,0.00,,,-99.99,WeatherLink 5.7,2013-07-04 05:13:00,
2013-07-04 01:23:00,77.3,73.8,30.26,SW,225,3.0,7.0,89,0.00,,,-99.99,WeatherLink 5.7,2013-07-04 05:23:00,
2013-07-04 01:33:00,77.2,73.7,30.26,SW,225,2.0,5.0,89,0.00,,,-99.99,WeatherLink 5.7,2013-07-04 05:33:00,
2013-07-04 01:43:00,77.1,73.9,30.26,SW,225,2.0,6.0,90,0.00,,,-99.99,WeatherLink 5.7,2013-07-04 05:43:00,
2013-07-04 01:53:00,77.1,73.9,30.26,SW,225,2.0,6.0,90,0.00,,,-99.99,WeatherLink 5.7,2013-07-04 05:53:00,
2013-07-04 02:03:00,77.1,73.9,30.26,SW,225,3.0,7.0,90,0.00,,,-99.99,WeatherLink 5.7,2013-07-04 06:03:00,
2013-07-04 02:13:00,77.0,73.8,30.25,SW,225,3.0,6.0,90,0.00,,,-99.99,WeatherLink 5.7,2013-07-04 06:13:00,
2013-07-04 02:23:00,76.8,74.0,30.25,SW,225,2.0,5.0,91,0.00,,,-99.99,WeatherLink 5.7,2013-07-04 06:23:00,
2013-07-04 02:33:00,76.7,73.9,30.25,SW,225,2.0,5.0,91,0.00,,,-99.99,WeatherLink 5.7,2013-07-04 06:33:00,
2013-07-04 02:43:00,76.6,73.8,30.25,SW,225,2.0,5.0,91,0.00,,,-99.99,WeatherLink 5.7,2013-07-04 06:43:00,
2013-07-04 02:53:00,76.6,73.8,30.25,SW,225,3.0,6.0,91,0.00,,,-99.99,WeatherLink 5.7,2013-07-04 06:53:00,
2013-07-04 03:03:00,76.5,74.0,30.25,SW,225,2.0,4.0,92,0.00,,,-99.99,WeatherLink 5.7,2013-07-04 07:03:00,
2013-07-04 03:13:00,76.3,73.8,30.26,SW,225,2.0,5.0,92,0.00,,,-99.99,WeatherLink 5.7,2013-07-04 07:13:00,
2013-07-04 03:23:00,76.1,73.6,30.25,SW,225,0.0,2.0,92,0.00,,,-99.99,WeatherLink 5.7,2013-07-04 07:23:00,
2013-07-04 03:33:00,76.0,73.8,30.25,SW,225,1.0,3.0,93,0.00,,,-99.99,WeatherLink 5.7,2013-07-04 07:33:00,
2013-07-04 03:43:00,75.9,74.0,30.25,SW,225,2.0,4.0,94,0.00,,,-99.99,WeatherLink 5.7,2013-07-04 07:43:00,
2013-07-04 03:53:00,75.9,74.0,30.25,SW,225,3.0,5.0,94,0.00,,,-99.99,WeatherLink 5.7,2013-07-04 07:53:00,
2013-07-04 04:03:00,75.9,74.0,30.25,SW,225,3.0,6.0,94,0.00,,,-99.99,WeatherLink 5.7,2013-07-04 08:03:00,
2013-07-04 04:13:00,75.9,74.0,30.25,SW,225,3.0,6.0,94,0.00,,,-99.99,WeatherLink 5.7,2013-07-04 08:13:00,
2013-07-04 04:23:00,76.0,74.1,30.25,SW,225,4.0,8.0,94,0.00,,,-99.99,WeatherLink 5.7,2013-07-04 08:23:00,
2013-07-04 04:33:00,76.1,74.2,30.25,SW,225,3.0,6.0,94,0.00,,,-99.99,WeatherLink 5.7,2013-07-04 08:33:00,
2013-07-04 04:43:00,76.1,74.2,30.25,SW,225,4.0,9.0,94,0.00,,,-99.99,WeatherLink 5.7,2013-07-04 08:43:00,
2013-07-04 04:53:00,76.1,73.9,30.26,SW,225,3.0,8.0,93,0.00,,,-99.99,WeatherLink 5.7,2013-07-04 08:53:00,
2013-07-04 05:03:00,76.1,73.9,30.26,SW,225,4.0,7.0,93,0.00,,,-99.99,WeatherLink 5.7,2013-07-04 09:03:00,
2013-07-04 05:14:00,76.1,73.9,30.26,SW,225,3.0,8.0,93,0.00,,,-99.99,WeatherLink 5.7,2013-07-04 09:14:00,
2013-07-04 05:23:00,76.1,73.9,30.26,SW,225,3.0,7.0,93,0.00,,,-99.99,WeatherLink 5.7,2013-07-04 09:23:00,
2013-07-04 05:33:00,76.3,74.1,30.26,SW,225,2.0,7.0,93,0.00,,,-99.99,WeatherLink 5.7,2013-07-04 09:33:00,
2013-07-04 05:43:00,76.3,73.8,30.26,SW,225,3.0,9.0,92,0.00,,,-99.99,WeatherLink 5.7,2013-07-04 09:43:00,
2013-07-04 05:53:00,76.3,73.8,30.26,SW,225,4.0,12.0,92,0.00,,,-99.99,WeatherLink 5.7,2013-07-04 09:53:00,
2013-07-04 06:03:00,76.3,73.5,30.26,SW,225,1.0,4.0,91,0.00,,,-99.99,WeatherLink 5.7,2013-07-04 10:03:00,
2013-07-04 06:13:00,76.3,73.5,30.26,SW,225,2.0,10.0,91,0.00,,,-99.99,WeatherLink 5.7,2013-07-04 10:13:00,
2013-07-04 06:23:00,76.3,73.8,30.27,SW,225,3.0,7.0,92,0.00,,,-99.99,WeatherLink 5.7,2013-07-04 10:23:00,
2013-07-04 06:33:00,76.3,73.8,30.26,SW,225,4.0,10.0,92,0.00,,,-99.99,WeatherLink 5.7,2013-07-04 10:33:00,
2013-07-04 06:43:00,76.3,73.5,30.27,SW,225,4.0,9.0,91,0.00,,,-99.99,WeatherLink 5.7,2013-07-04 10:43:00,
2013-07-04 06:53:00,76.4,73.6,30.27,SW,225,4.0,10.0,91,0.00,,,-99.99,WeatherLink 5.7,2013-07-04 10:53:00,
2013-07-04 07:03:00,76.4,73.6,30.27,SW,225,5.0,11.0,91,0.00,,,-99.99,WeatherLink 5.7,2013-07-04 11:03:00,
2013-07-04 07:13:00,76.4,73.2,30.27,SW,225,4.0,9.0,90,0.00,,,-99.99,WeatherLink 5.7,2013-07-04 11:13:00,
2013-07-04 07:23:00,76.5,73.0,30.28,SW,225,3.0,9.0,89,0.00,,,-99.99,WeatherLink 5.7,2013-07-04 11:23:00,
2013-07-04 07:33:00,76.8,73.0,30.28,SW,225,3.0,9.0,88,0.00,,,-99.99,WeatherLink 5.7,2013-07-04 11:33:00,
2013-07-04 07:43:00,77.2,73.0,30.28,SW,225,4.0,11.0,87,0.00,,,-99.99,WeatherLink 5.7,2013-07-04 11:43:00,
2013-07-04 07:53:00,77.5,73.0,30.28,SW,225,5.0,13.0,86,0.00,,,-99.99,WeatherLink 5.7,2013-07-04 11:53:00,
2013-07-04 08:03:00,77.5,72.6,30.28,WSW,247,5.0,10.0,85,0.00,,,-99.99,WeatherLink 5.7,2013-07-04 12:03:00,
2013-07-04 08:13:00,77.8,72.6,30.28,WSW,247,4.0,10.0,84,0.00,,,-99.99,WeatherLink 5.7,2013-07-04 12:13:00,
2013-07-04 08:23:00,78.0,72.4,30.28,WSW,247,3.0,9.0,83,0.00,,,-99.99,WeatherLink 5.7,2013-07-04 12:23:00,
2013-07-04 08:33:00,78.5,72.5,30.28,SW,225,4.0,10.0,82,0.00,,,-99.99,WeatherLink 5.7,2013-07-04 12:33:00,
2013-07-04 08:43:00,78.8,72.1,30.28,SW,225,4.0,11.0,80,0.00,,,-99.99,WeatherLink 5.7,2013-07-04 12:43:00,
2013-07-04 08:54:00,79.3,72.2,30.29,SW,225,6.0,12.0,79,0.00,,,-99.99,WeatherLink 5.7,2013-07-04 12:54:00,
2013-07-04 09:03:00,79.6,71.8,30.28,SW,225,5.0,14.0,77,0.00,,,-99.99,WeatherLink 5.7,2013-07-04 13:03:00,
2013-07-04 09:13:00,79.9,72.0,30.28,WSW,247,4.0,10.0,77,0.00,,,-99.99,WeatherLink 5.7,2013-07-04 13:13:00,
2013-07-04 09:23:00,79.9,71.7,30.28,WSW,247,3.0,7.0,76,0.00,,,-99.99,WeatherLink 5.7,2013-07-04 13:23:00,
2013-07-04 09:33:00,80.4,71.7,30.28,SW,225,4.0,11.0,75,0.00,,,-99.99,WeatherLink 5.7,2013-07-04 13:33:00,
2013-07-04 09:43:00,80.8,71.7,30.28,SW,225,5.0,12.0,74,0.00,,,-99.99,WeatherLink 5.7,2013-07-04 13:43:00,
2013-07-04 09:53:00,81.2,71.7,30.27,SW,225,4.0,10.0,73,0.00,,,-99.99,WeatherLink 5.7,2013-07-04 13:53:00,
2013-07-04 10:03:00,81.6,71.3,30.27,WSW,247,6.0,15.0,71,0.00,,,-99.99,WeatherLink 5.7,2013-07-04 14:03:00,
2013-07-04 10:13:00,81.7,71.4,30.27,SW,225,6.0,12.0,71,0.00,,,-99.99,WeatherLink 5.7,2013-07-04 14:13:00,
2013-07-04 10:23:00,81.6,71.3,30.27,WSW,247,7.0,17.0,71,0.00,,,-99.99,WeatherLink 5.7,2013-07-04 14:23:00,
2013-07-04 10:33:00,81.9,70.7,30.28,SW,225,4.0,11.0,69,0.00,,,-99.99,WeatherLink 5.7,2013-07-04 14:33:00,
2013-07-04 10:43:00,82.7,70.6,30.28,WSW,247,3.0,12.0,67,0.00,,,-99.99,WeatherLink 5.7,2013-07-04 14:43:00,
2013-07-04 10:53:00,83.1,70.6,30.27,SW,225,7.0,13.0,66,0.00,,,-99.99,WeatherLink 5.7,2013-07-04 14:53:00,
2013-07-04 11:03:00,83.2,69.8,30.27,SW,225,5.0,12.0,64,0.00,,,-99.99,WeatherLink 5.7,2013-07-04 15:03:00,
2013-07-04 11:13:00,83.8,70.3,30.27,SW,225,4.0,13.0,64,0.00,,,-99.99,WeatherLink 5.7,2013-07-04 15:13:00,
2013-07-04 11:23:00,83.5,70.5,30.27,SW,225,4.0,12.0,65,0.00,,,-99.99,WeatherLink 5.7,2013-07-04 15:23:00,
2013-07-04 11:33:00,83.3,69.8,30.27,SW,225,4.0,11.0,64,0.00,,,-99.99,WeatherLink 5.7,2013-07-04 15:33:00,
2013-07-04 11:43:00,83.9,69.0,30.27,SW,225,5.0,11.0,61,0.00,,,-99.99,WeatherLink 5.7,2013-07-04 15:43:00,
2013-07-04 11:53:00,84.2,70.2,30.26,WSW,247,5.0,10.0,63,0.00,,,-99.99,WeatherLink 5.7,2013-07-04 15:53:00,
2013-07-04 12:03:00,85.0,69.6,30.26,SW,225,3.0,11.0,60,0.00,,,-99.99,WeatherLink 5.7,2013-07-04 16:03:00,
2013-07-04 12:13:00,85.2,70.2,30.26,SW,225,3.0,9.0,61,0.00,,,-99.99,WeatherLink 5.7,2013-07-04 16:13:00,
2013-07-04 12:23:00,85.0,70.5,30.26,WSW,247,5.0,10.0,62,0.00,,,-99.99,WeatherLink 5.7,2013-07-04 16:23:00,
2013-07-04 12:33:00,84.7,70.2,30.25,WSW,247,5.0,12.0,62,0.00,,,-99.99,WeatherLink 5.7,2013-07-04 16:33:00,
2013-07-04 12:43:00,85.0,70.5,30.25,SW,225,4.0,9.0,62,0.00,,,-99.99,WeatherLink 5.7,2013-07-04 16:43:00,
2013-07-04 12:53:00,85.7,70.2,30.25,South,180,4.0,10.0,60,0.00,,,-99.99,WeatherLink 5.7,2013-07-04 16:53:00,
2013-07-04 13:03:00,85.3,69.8,30.25,South,180,3.0,10.0,60,0.00,,,-99.99,WeatherLink 5.7,2013-07-04 17:03:00,
2013-07-04 13:13:00,84.8,70.3,30.25,South,180,4.0,13.0,62,0.00,,,-99.99,WeatherLink 5.7,2013-07-04 17:13:00,
2013-07-04 13:23:00,85.2,69.7,30.25,SSW,202,4.0,12.0,60,0.00,,,-99.99,WeatherLink 5.7,2013-07-04 17:23:00,
2013-07-04 13:33:00,85.8,69.8,30.25,SSW,202,4.0,15.0,59,0.00,,,-99.99,WeatherLink 5.7,2013-07-04 17:33:00,
2013-07-04 13:43:00,85.5,70.5,30.24,SW,225,3.0,8.0,61,0.00,,,-99.99,WeatherLink 5.7,2013-07-04 17:43:00,
2013-07-04 13:53:00,85.9,70.4,30.24,SSW,202,3.0,10.0,60,0.00,,,-99.99,WeatherLink 5.7,2013-07-04 17:53:00,
2013-07-04 14:03:00,86.1,69.6,30.23,SW,225,6.0,14.0,58,0.00,,,-99.99,WeatherLink 5.7,2013-07-04 18:03:00,
2013-07-04 14:13:00,86.6,69.6,30.24,SW,225,4.0,13.0,57,0.00,,,-99.99,WeatherLink 5.7,2013-07-04 18:13:00,
2013-07-04 14:23:00,86.5,70.0,30.24,SW,225,5.0,15.0,58,0.00,,,-99.99,WeatherLink 5.7,2013-07-04 18:23:00,
2013-07-04 14:33:00,87.1,69.5,30.23,WSW,247,6.0,14.0,56,0.00,,,-99.99,WeatherLink 5.7,2013-07-04 18:33:00,
2013-07-04 14:43:00,87.0,69.4,30.23,SW,225,4.0,15.0,56,0.00,,,-99.99,WeatherLink 5.7,2013-07-04 18:43:00,
2013-07-04 14:53:00,86.5,69.5,30.23,SW,225,5.0,14.0,57,0.00,,,-99.99,WeatherLink 5.7,2013-07-04 18:53:00,
2013-07-04 15:03:00,86.4,69.4,30.23,WSW,247,6.0,18.0,57,0.00,,,-99.99,WeatherLink 5.7,2013-07-04 19:03:00,
2013-07-04 15:13:00,86.6,69.0,30.22,SW,225,6.0,18.0,56,0.00,,,-99.99,WeatherLink 5.7,2013-07-04 19:13:00,
2013-07-04 15:23:00,86.7,68.6,30.21,SW,225,6.0,15.0,55,0.00,,,-99.99,WeatherLink 5.7,2013-07-04 19:23:00,
2013-07-04 15:33:00,86.9,68.8,30.21,SW,225,7.0,16.0,55,0.00,,,-99.99,WeatherLink 5.7,2013-07-04 19:33:00,
2013-07-04 15:43:00,87.3,68.6,30.21,SW,225,5.0,17.0,54,0.00,,,-99.99,WeatherLink 5.7,2013-07-04 19:43:00,
2013-07-04 15:53:00,87.8,68.5,30.20,SW,225,6.0,15.0,53,0.00,,,-99.99,WeatherLink 5.7,2013-07-04 19:53:00,
2013-07-04 16:03:00,88.1,68.8,30.20,SW,225,6.0,13.0,53,0.00,,,-99.99,WeatherLink 5.7,2013-07-04 20:03:00,
2013-07-04 16:13:00,88.1,68.3,30.20,SW,225,7.0,14.0,52,0.00,,,-99.99,WeatherLink 5.7,2013-07-04 20:13:00,
2013-07-04 16:23:00,88.1,67.7,30.20,SW,225,7.0,17.0,51,0.00,,,-99.99,WeatherLink 5.7,2013-07-04 20:23:00,
2013-07-04 16:33:00,88.1,67.1,30.20,SW,225,6.0,16.0,50,0.00,,,-99.99,WeatherLink 5.7,2013-07-04 20:33:00,
2013-07-04 16:43:00,87.8,68.5,30.20,SW,225,6.0,18.0,53,0.00,,,-99.99,WeatherLink 5.7,2013-07-04 20:43:00,
2013-07-04 16:53:00,87.9,68.1,30.20,SW,225,7.0,16.0,52,0.00,,,-99.99,WeatherLink 5.7,2013-07-04 20:53:00,
2013-07-04 17:03:00,88.0,68.2,30.19,SW,225,7.0,18.0,52,0.00,,,-99.99,WeatherLink 5.7,2013-07-04 21:03:00,
2013-07-04 17:13:00,88.0,68.2,30.19,SW,225,6.0,15.0,52,0.00,,,-99.99,WeatherLink 5.7,2013-07-04 21:13:00,
2013-07-04 17:23:00,88.0,68.7,30.19,SW,225,6.0,12.0,53,0.00,,,-99.99,WeatherLink 5.7,2013-07-04 21:23:00,
2013-07-04 17:33:00,87.9,68.6,30.19,SW,225,6.0,17.0,53,0.00,,,-99.99,WeatherLink 5.7,2013-07-04 21:33:00,
2013-07-04 17:43:00,87.8,68.0,30.19,SW,225,5.0,12.0,52,0.00,,,-99.99,WeatherLink 5.7,2013-07-04 21:43:00,
2013-07-04 17:53:00,87.8,68.0,30.19,SSW,202,5.0,16.0,52,0.00,,,-99.99,WeatherLink 5.7,2013-07-04 21:53:00,
2013-07-04 18:03:00,87.7,67.9,30.18,SW,225,4.0,13.0,52,0.00,,,-99.99,WeatherLink 5.7,2013-07-04 22:03:00,
2013-07-04 18:13:00,87.6,67.8,30.18,WSW,247,6.0,12.0,52,0.00,,,-99.99,WeatherLink 5.7,2013-07-04 22:13:00,
2013-07-04 18:23:00,87.6,67.2,30.18,WSW,247,8.0,19.0,51,0.00,,,-99.99,WeatherLink 5.7,2013-07-04 22:23:00,
2013-07-04 18:33:00,87.3,67.5,30.19,SW,225,6.0,16.0,52,0.00,,,-99.99,WeatherLink 5.7,2013-07-04 22:33:00,
2013-07-04 18:43:00,86.7,67.0,30.19,SW,225,6.0,15.0,52,0.00,,,-99.99,WeatherLink 5.7,2013-07-04 22:43:00,
2013-07-04 18:53:00,86.7,67.5,30.19,SSW,202,4.0,12.0,53,0.00,,,-99.99,WeatherLink 5.7,2013-07-04 22:53:00,
2013-07-04 19:03:00,86.7,67.5,30.19,SW,225,5.0,15.0,53,0.00,,,-99.99,WeatherLink 5.7,2013-07-04 23:03:00,
2013-07-04 19:13:00,86.4,67.2,30.19,SW,225,5.0,12.0,53,0.00,,,-99.99,WeatherLink 5.7,2013-07-04 23:13:00,
2013-07-04 19:23:00,86.2,67.1,30.19,SSW,202,4.0,11.0,53,0.00,,,-99.99,WeatherLink 5.7,2013-07-04 23:23:00,
2013-07-04 19:33:00,86.2,67.6,30.19,SW,225,4.0,10.0,54,0.00,,,-99.99,WeatherLink 5.7,2013-07-04 23:33:00,
2013-07-04 19:43:00,86.0,67.4,30.19,SW,225,4.0,11.0,54,0.00,,,-99.99,WeatherLink 5.7,2013-07-04 23:43:00,
2013-07-04 19:53:00,85.9,67.3,30.20,SW,225,3.0,9.0,54,0.00,,,-99.99,WeatherLink 5.7,2013-07-04 23:53:00,
2013-07-04 20:03:00,85.5,67.5,30.19,SW,225,1.0,7.0,55,0.00,,,-99.99,WeatherLink 5.7,2013-07-05 00:03:00,
2013-07-04 20:13:00,85.2,67.2,30.20,SW,225,2.0,10.0,55,0.00,,,-99.99,WeatherLink 5.7,2013-07-05 00:13:00,
2013-07-04 20:23:00,84.9,66.9,30.20,SW,225,3.0,9.0,55,0.00,,,-99.99,WeatherLink 5.7,2013-07-05 00:23:00,
2013-07-04 20:33:00,84.6,66.7,30.20,SSW,202,2.0,9.0,55,0.00,,,-99.99,WeatherLink 5.7,2013-07-05 00:33:00,
2013-07-04 20:43:00,84.2,66.8,30.21,SSW,202,3.0,7.0,56,0.00,,,-99.99,WeatherLink 5.7,2013-07-05 00:43:00,
2013-07-04 20:53:00,84.1,67.2,30.20,SSW,202,3.0,8.0,57,0.00,,,-99.99,WeatherLink 5.7,2013-07-05 00:53:00,
2013-07-04 21:03:00,84.0,67.1,30.20,SSW,202,3.0,6.0,57,0.00,,,-99.99,WeatherLink 5.7,2013-07-05 01:03:00,
2013-07-04 21:13:00,83.7,66.8,30.21,SSW,202,2.0,8.0,57,0.00,,,-99.99,WeatherLink 5.7,2013-07-05 01:13:00,
2013-07-04 21:23:00,83.5,66.7,30.21,SW,225,3.0,8.0,57,0.00,,,-99.99,WeatherLink 5.7,2013-07-05 01:23:00,
2013-07-04 21:33:00,83.3,67.0,30.22,SW,225,2.0,8.0,58,0.00,,,-99.99,WeatherLink 5.7,2013-07-05 01:33:00,
2013-07-04 21:43:00,82.9,66.6,30.22,SW,225,1.0,4.0,58,0.00,,,-99.99,WeatherLink 5.7,2013-07-05 01:43:00,
2013-07-04 21:53:00,82.6,66.8,30.22,SW,225,1.0,6.0,59,0.00,,,-99.99,WeatherLink 5.7,2013-07-05 01:53:00,
2013-07-04 22:03:00,82.3,67.5,30.22,SW,225,2.0,8.0,61,0.00,,,-99.99,WeatherLink 5.7,2013-07-05 02:03:00,
2013-07-04 22:13:00,82.2,67.9,30.23,SW,225,4.0,9.0,62,0.00,,,-99.99,WeatherLink 5.7,2013-07-05 02:13:00,
2013-07-04 22:23:00,82.1,67.8,30.22,SW,225,3.0,9.0,62,0.00,,,-99.99,WeatherLink 5.7,2013-07-05 02:23:00,
2013-07-04 22:33:00,81.8,68.0,30.23,SW,225,2.0,7.0,63,0.00,,,-99.99,WeatherLink 5.7,2013-07-05 02:33:00,
2013-07-04 22:43:00,81.5,67.7,30.23,SW,225,3.0,12.0,63,0.00,,,-99.99,WeatherLink 5.7,2013-07-05 02:43:00,
2013-07-04 22:53:00,81.4,67.6,30.23,SW,225,3.0,7.0,63,0.00,,,-99.99,WeatherLink 5.7,2013-07-05 02:53:00,
2013-07-04 23:03:00,81.3,67.5,30.23,SW,225,3.0,12.0,63,0.00,,,-99.99,WeatherLink 5.7,2013-07-05 03:03:00,
2013-07-04 23:13:00,81.1,67.8,30.23,SW,225,3.0,7.0,64,0.00,,,-99.99,WeatherLink 5.7,2013-07-05 03:13:00,
2013-07-04 23:23:00,80.8,67.5,30.23,SW,225,2.0,9.0,64,0.00,,,-99.99,WeatherLink 5.7,2013-07-05 03:23:00,
2013-07-04 23:33:00,80.6,68.2,30.23,SW,225,4.0,9.0,66,0.00,,,-99.99,WeatherLink 5.7,2013-07-05 03:33:00,
2013-07-04 23:43:00,80.3,67.9,30.23,SW,225,3.0,8.0,66,0.00,,,-99.99,WeatherLink 5.7,2013-07-05 03:43:00,
2013-07-04 23:53:00,80.1,68.2,30.23,SW,225,2.0,7.0,67,0.00,,,-99.99,WeatherLink 5.7,2013-07-05 03:53:00,